Theta_e
343 343 341 342 342 341 341 344 345 345 346 346 346 349 346 345 344 343 345 346 345 344 343 348 352 350 348 347 346 347 346 346 345 346 345 346 341 338 337 342 343 343 344
346 347 348 347 348 346 344 345 345 346 346 345 347 349 347 346 347 346 345 345 346 345 345 347 349 351 350 349 347 347 346 345 345 346 344 342 343 342 341 342 343 342 344
347 347 347 348 346 347 348 347 344 344 348 349 348 348 349 350 349 349 349 345 346 346 345 345 347 346 348 350 350 348 346 344 345 345 344 341 341 340 339 340 343 343 343
345 345 347 348 346 347 348 349 348 348 348 349 349 350 350 351 351 350 350 348 347 347 347 347 347 347 347 348 349 349 345 344 344 343 342 342 341 339 339 339 341 342 333
348 344 347 347 349 348 347 349 349 349 349 348 350 349 351 351 351 350 351 350 350 349 350 349 348 348 348 347 348 349 348 343 343 341 343 342 340 340 338 339 341 336 337
346 346 346 349 349 350 350 351 348 349 349 349 349 351 350 350 349 350 350 350 349 349 350 350 350 349 349 347 346 348 350 348 344 343 340 343 340 340 339 338 339 340 342
347 347 343 342 348 349 350 351 350 350 349 350 351 349 349 349 349 349 350 350 350 348 350 351 351 350 350 349 346 347 348 349 347 341 340 341 340 340 340 338 338 338 341
348 349 348 349 350 351 351 350 350 351 350 350 350 348 351 349 348 349 348 345 344 350 351 351 351 346 347 348 348 347 348 348 349 348 339 338 339 340 340 340 338 338 339
349 349 349 350 350 350 351 351 352 351 351 351 351 351 353 352 347 347 347 348 347 346 347 348 346 350 351 350 350 350 348 348 348 349 347 338 337 337 337 339 339 338 338
350 350 350 350 352 353 353 353 353 351 352 352 351 349 350 350 353 353 347 348 348 349 346 343 347 347 348 349 349 349 350 349 348 347 347 345 339 336 337 338 338 337 337
350 351 350 351 352 352 352 352 354 352 353 353 351 349 349 349 350 349 352 347 347 347 346 348 346 342 347 348 348 348 348 349 347 347 346 345 344 343 337 340 340 337 338
352 351 352 352 352 351 350 350 352 354 352 351 351 346 344 348 345 347 348 346 344 343 341 347 346 347 347 347 348 349 347 348 348 345 345 344 344 345 345 341 340 338 337
352 352 352 353 352 352 352 352 352 354 351 350 347 345 341 348 350 347 346 346 337 333 332 334 341 346 347 347 349 350 349 348 348 347 346 345 345 344 344 346 345 343 342
353 352 353 353 352 352 353 352 352 352 352 349 337 336 343 345 347 350 344 342 337 331 332 335 337 344 346 348 347 347 348 346 345 346 348 348 345 345 345 344 346 344 343
355 354 354 354 353 352 350 349 348 350 350 346 337 339 343 347 349 344 340 340 331 336 334 334 341 344 345 345 344 345 349 344 344 342 344 343 343 344 344 344 344 344 344
357 356 355 355 351 349 348 337 342 349 348 345 340 336 344 346 344 344 338 334 333 331 334 334 341 345 348 348 346 345 346 345 342 341 340 340 341 342 342 341 342 343 344
354 354 354 352 350 340 341 336 339 346 344 344 341 336 338 341 340 342 338 336 335 334 333 334 339 345 347 349 348 346 345 343 343 344 342 343 343 340 341 340 339 339 342
355 355 354 351 345 342 342 341 340 341 341 342 345 341 338 338 338 338 338 336 335 335 335 334 337 339 340 340 341 341 342 342 341 340 340 341 343 344 342 341 339 338 338
350 351 352 350 349 346 342 337 336 337 340 342 338 343 340 337 337 336 338 336 335 333 332 330 334 335 332 330 331 333 334 338 339 337 337 337 337 339 340 341 340 340 339
348 348 347 344 337 339 340 343 344 346 344 343 341 339 341 340 338 337 337 339 335 333 332 332 330 330 329 329 330 330 331 334 334 334 333 334 336 335 337 338 337 337 338
342 342 342 341 339 341 338 337 339 343 344 344 345 345 343 344 340 339 338 339 336 333 332 330 328 328 329 330 331 329 329 330 331 334 333 333 333 334 338 338 337 339 340
337 337 337 337 338 337 339 340 343 344 344 342 341 341 341 342 342 341 340 340 338 335 332 327 325 326 327 327 325 322 322 323 328 330 328 327 325 327 330 332 338 341 338
332 333 332 331 330 331 333 336 338 337 336 334 333 334 335 336 338 339 340 336 331 327 329 328 324 322 324 322 321 320 318 319 319 317 316 313 312 312 316 322 330 329 331
329 330 329 327 328 328 329 329 329 329 327 326 325 326 328 330 331 334 332 328 325 322 324 324 322 320 323 324 322 322 320 319 321 318 318 314 324 329 326 329 328 327 328
327 325 326 327 326 327 327 327 328 327 325 325 326 325 325 324 325 327 329 328 326 327 326 327 326 325 324 323 321 320 321 320 321 321 319 324 328 327 325 329 332 331 331
323 322 322 323 323 323 324 324 324 323 322 320 319 319 321 322 322 325 327 327 326 324 325 325 324 324 325 325 326 325 324 322 319 320 324 323 324 325 326 325 326 324 324
Wind_Speed
5 3 2 3 4 5 6 6 7 8 11 12 13 15 12 9 10 12 13 15 15 12 12 13 16 13 12 12 13 13 13 14 16 15 15 16 16 16 16 17 17 18 18
5 3 4 6 7 9 10 9 11 13 15 15 15 14 11 11 11 11 14 14 17 19 15 12 15 15 15 15 15 14 14 14 16 17 18 18 17 19 18 19 20 19 19
8 6 7 10 9 11 12 13 15 16 16 17 19 18 15 14 13 14 16 17 18 20 23 21 15 15 16 18 18 18 17 17 16 16 17 17 17 18 18 21 22 21 21
11 10 9 8 7 9 11 14 14 15 17 18 19 20 17 15 15 16 17 18 19 21 22 24 21 21 20 17 21 21 19 18 18 16 16 16 18 17 18 20 22 21 20
13 14 12 12 11 11 14 15 15 16 18 21 20 19 18 15 14 13 15 18 20 20 22 22 21 23 23 23 20 24 23 19 19 18 17 16 17 20 19 19 22 22 22
14 17 16 15 14 14 15 16 18 18 19 19 17 19 19 18 18 17 19 20 21 22 22 21 20 21 22 27 24 21 24 20 19 20 19 19 18 19 22 21 22 23 23
17 15 16 18 17 16 16 15 18 15 16 13 10 13 13 13 13 13 13 13 16 18 19 19 16 18 19 22 25 23 17 22 21 21 20 21 19 18 22 24 24 23 23
17 16 16 17 19 16 14 13 9 11 11 7 4 3 3 4 5 9 10 11 13 14 15 13 13 12 13 18 21 24 20 18 23 22 22 22 21 19 20 24 23 23 23
17 18 17 17 15 17 14 14 13 12 11 7 4 3 2 2 5 5 6 9 10 12 15 17 16 13 10 10 13 15 19 18 21 23 22 22 21 23 22 21 22 22 22
16 16 16 16 16 16 15 14 13 12 11 12 9 8 13 9 2 4 5 13 11 13 13 16 17 14 10 8 7 9 11 15 18 21 23 22 23 24 22 27 26 26 25
16 16 15 17 15 14 14 14 12 12 11 12 11 9 9 10 9 6 4 8 14 9 12 16 13 12 10 9 9 9 10 15 17 20 20 20 22 24 27 27 29 31 30
11 12 12 12 13 15 16 15 14 14 14 15 14 13 13 9 5 5 4 4 6 10 9 9 12 13 12 12 12 10 9 13 15 15 16 19 19 21 25 27 28 29 29
13 13 11 12 13 16 16 16 16 15 14 15 16 17 16 15 15 12 8 6 3 5 4 7 12 16 14 13 14 14 8 10 13 14 15 17 19 21 22 27 28 28 29
14 13 11 11 13 12 11 12 14 16 15 15 16 15 15 16 14 15 11 4 2 2 5 7 10 11 13 15 15 11 11 10 10 11 13 14 16 20 22 21 27 29 30
16 15 16 15 13 13 15 16 16 15 15 14 15 15 16 14 14 15 16 14 6 2 2 5 4 7 14 15 13 12 12 9 11 10 11 11 12 16 18 20 21 22 31
18 18 18 16 17 14 13 8 13 15 15 13 12 15 17 16 16 16 14 14 13 9 3 4 4 8 7 10 12 13 10 11 10 11 10 10 10 13 15 15 17 20 26
24 23 23 21 19 14 16 11 8 10 13 13 12 14 19 18 17 16 14 13 15 14 7 8 9 7 5 7 10 13 13 13 13 11 11 12 13 13 14 13 12 13 16
21 23 22 16 16 18 18 21 15 13 14 14 13 15 18 18 19 17 16 16 15 15 12 11 8 7 6 6 7 8 11 13 13 12 13 14 16 16 18 16 15 14 15
9 11 14 17 19 15 13 13 12 16 17 12 14 19 20 19 20 20 19 17 17 16 15 11 9 9 7 6 7 9 10 12 12 13 14 14 15 17 18 18 18 18 19
8 8 7 7 7 8 9 10 10 11 9 14 18 19 21 21 23 22 22 20 17 16 16 13 10 8 7 6 6 6 8 8 9 10 11 13 17 19 21 23 23 23 22
13 13 13 10 8 8 7 9 10 14 12 14 16 17 19 20 20 22 24 23 21 20 17 13 8 4 4 3 3 2 2 3 4 5 3 4 5 7 10 17 22 24 24
15 15 16 15 14 13 12 9 8 8 8 10 11 13 14 14 15 19 21 24 25 27 23 11 6 2 1 2 3 4 5 4 3 3 7 11 10 11 9 9 10 14 18
17 20 20 19 20 20 20 17 12 10 12 14 15 16 16 13 13 13 10 9 3 5 5 8 8 9 11 11 10 10 7 6 5 10 12 12 12 14 15 16 14 13 13
23 22 23 22 23 24 22 21 19 18 21 24 24 23 21 20 16 7 6 14 19 22 19 17 15 8 7 4 4 7 11 11 10 8 10 4 7 9 14 13 16 18 17
21 22 23 23 25 24 22 22 22 23 24 26 28 28 25 22 18 18 20 18 16 12 4 2 12 10 5 4 11 7 10 12 7 10 6 5 7 14 13 10 7 8 11
20 22 24 24 23 24 23 22 21 22 24 24 23 22 21 20 20 21 18 12 10 8 6 8 10 8 9 10 6 1 5 4 2 7 5 6 5 5 4 5 14 13 12
Wind_Direction
195 194 212 236 260 265 266 269 276 286 296 303 308 305 284 282 287 285 268 252 243 231 245 237 226 224 225 225 220 215 211 213 211 208 207 209 201 203 202 198 196 192 185
255 294 305 290 286 284 279 275 282 292 297 294 294 306 288 278 276 275 273 266 249 242 245 260 239 229 228 231 228 222 215 216 214 213 213 213 211 209 207 203 200 197 189
263 281 288 293 284 279 276 284 282 286 289 298 286 291 290 280 275 276 271 268 261 250 251 252 252 229 249 229 231 224 218 216 219 215 218 218 217 215 205 204 201 196 193
251 260 274 290 277 266 272 284 284 283 281 288 291 290 288 277 273 269 263 260 256 256 258 263 256 244 248 239 232 227 223 218 218 218 221 218 217 214 210 207 200 198 195
257 254 264 273 278 277 271 277 280 280 283 284 280 288 291 277 273 265 260 258 256 253 255 261 255 244 242 240 240 232 222 220 221 216 219 221 220 215 212 210 203 196 194
255 257 257 266 278 275 275 277 282 285 282 287 287 291 291 284 276 272 270 266 262 255 256 255 251 247 243 238 244 243 225 218 221 224 217 220 225 213 209 209 208 205 203
256 261 266 270 272 273 277 284 279 286 313 305 289 296 297 287 271 273 275 272 265 256 254 254 251 258 244 242 247 252 252 223 222 223 222 221 224 217 210 210 211 211 211
256 269 275 277 270 288 288 301 297 303 308 268 283 320 334 324 289 260 276 275 261 249 247 246 255 254 250 249 252 250 244 232 221 222 223 224 223 220 219 218 219 218 219
260 266 267 277 280 285 294 301 304 302 309 317 300 274 311 282 324 287 284 284 282 268 256 251 252 257 269 269 258 251 235 237 228 225 228 228 227 222 218 228 225 222 222
267 267 273 281 293 295 290 303 307 306 294 294 301 271 259 257 275 313 298 317 289 279 268 241 247 252 272 292 284 250 235 230 234 233 233 235 232 227 225 221 220 214 218
263 266 270 272 279 286 287 286 291 296 287 282 285 293 296 289 264 249 296 316 317 306 285 248 238 235 255 274 273 266 244 229 234 233 237 238 237 233 225 225 226 225 215
271 270 266 265 273 288 283 284 282 279 280 277 274 271 272 269 296 259 260 293 293 311 315 251 237 245 251 253 264 264 256 239 236 238 239 242 243 237 225 225 227 218 218
275 272 272 271 273 280 279 278 276 272 269 268 277 278 278 268 269 272 273 279 276 306 316 323 270 255 252 244 251 258 261 249 243 242 242 244 247 242 238 225 217 217 215
274 275 284 282 279 278 264 262 267 270 268 276 284 269 271 272 276 265 263 259 296 301 306 304 304 259 246 243 253 244 242 239 246 254 254 259 252 243 239 238 231 219 218
277 276 278 277 271 268 263 251 244 248 253 271 279 272 274 268 265 274 272 260 243 278 295 315 299 282 246 246 231 219 235 239 244 256 254 250 250 242 243 246 239 236 226
274 274 272 267 266 264 267 273 272 242 238 258 273 272 268 268 271 266 272 262 252 246 253 266 287 290 263 231 213 217 233 237 241 247 254 263 262 248 239 242 246 238 233
275 270 267 268 257 283 276 276 304 269 260 274 280 274 270 272 272 259 261 259 251 242 238 268 260 278 260 223 210 212 222 233 236 239 251 262 265 259 247 242 241 238 235
275 276 271 257 262 286 278 289 292 268 288 275 288 288 279 271 266 260 255 258 253 244 241 255 256 244 228 212 213 218 220 231 249 249 251 260 262 255 251 248 247 242 244
308 300 282 278 290 300 300 306 298 292 288 276 291 289 277 268 264 260 255 253 252 248 246 249 249 242 250 253 244 240 244 242 237 247 256 255 259 261 258 248 251 250 241
12 7 357 351 16 29 14 357 335 316 283 290 295 296 281 270 267 260 248 247 244 241 238 239 250 245 247 257 273 263 249 236 235 243 249 258 258 256 253 256 256 250 244
43 43 42 32 358 357 334 293 306 310 308 312 310 305 290 280 269 270 266 253 236 230 232 232 231 242 256 255 254 297 327 302 271 254 270 253 281 283 269 256 252 254 232
33 31 34 34 24 11 354 349 326 331 323 321 328 322 318 313 299 280 276 265 251 235 221 216 208 187 295 352 350 342 340 350 329 270 308 290 296 292 289 285 256 243 236
59 58 56 53 47 41 34 30 24 24 28 25 11 358 347 340 322 310 304 247 175 33 232 170 115 57 58 25 10 357 5 349 313 313 307 294 301 302 290 273 262 253 244
71 62 59 56 54 47 44 50 56 60 60 53 48 40 39 26 8 349 127 98 90 89 83 62 71 115 161 157 6 344 337 328 338 343 337 283 353 343 335 298 267 245 246
71 65 63 61 60 54 52 56 56 60 56 55 55 51 52 57 64 79 83 99 106 108 115 183 229 206 171 204 224 232 271 297 328 318 329 342 355 352 345 6 335 272 250
81 76 72 69 66 61 57 57 57 60 61 60 56 53 50 48 39 46 47 52 87 73 107 147 137 128 120 94 99 179 236 227 275 312 306 334 292 355 331 304 349 349 342